フルス彗星

C/2023 T3 ( Fuls )

English version
Home page
Updated on May 27, 2025

---------------------------------------------------------------------

・ プロフィール

発見日 2023年10月15日
発見光度 18.5等
発見者 David Carson Fuls (Mt. Lemmon Survey)

・ 写真集

・ 軌道要素

Epoch 2025 May 5.0 TT = JDT 2460800.5
T 2025 Jan. 25.34896 TT                                 Pike
q   3.5483257            (2000.0)            P               Q
z  +0.0011773      Peri.  302.84705     -0.90309270     +0.09894612
 +/-0.0000019      Node   246.00172     -0.02298892     -0.98283839
e   0.9958224      Incl.   27.22159     -0.42882991     -0.15568673
From 745 observations 2023 Sept. 9-2025 Feb. 27, mean residual 0".4.

・ 星図

・ 光度変化

        m1 = 7.7 + 5 logΔ + 10.0 log r

---------------------------------------------------------------------

軌道要素はM.P.E.C. 2025-D254に掲載されたものです。
星図はステラナビゲータ Ver.11 (アストロアーツ) で作成したものです。
光度グラフはComet for Windowsで作成したものです。

---------------------------------------------------------------------

Copyright(C) Seiichi Yoshida (comet@aerith.net). All rights reserved.